Regional Weather Roundup
Issued by NWS

Home | Current Version | Previous Version | Graphics & Text | Print | Product List | Glossary On
Versions: 1 2 3 4 5 6 7 8 9 10 11 12 13 14 15 16 17 18 19 20 21 22 23 24 25 26 27 28 29 30 31 32 33 34 35 36 37 38 39 40 41 42 43 44 45 46 47 48 49 50
000
ASUS43 KDTX 222201
RWRMI
MICHIGAN HOURLY REGIONAL WEATHER ROUNDUP
NATIONAL WEATHER SERVICE DETROIT/PONTIAC MI
500 PM EST MON DEC 22 2014

NOTE: "FAIR" INDICATES FEW OR NO CLOUDS BELOW 12,000 FEET WITH NO
SIGNIFICANT WEATHER AND/OR OBSTRUCTION TO VISIBILITY.

MIZ047>049-052>055-059>063-066>070-074>076-081>083-222300-
SOUTHEAST LOWER MICHIGAN

CITY           SKY/WX    TMP DP  RH WIND       PRES   REMARKS
ADRIAN         CLOUDY    35  30  82 E13       29.91F WCI  26
ALMA           CLOUDY    34  29  80 E7        29.91F WCI  28
ANN ARBOR      MOCLDY    37  30  75 E10       29.92F WCI  30
BAD AXE        MOCLDY    32  29  89 E7        29.98F WCI  26
CARO           CLOUDY    35  29  80 E5        29.95S WCI  30
DETROIT CITY   CLOUDY    37  30  75 E9        29.96F WCI  30
DETROIT        CLOUDY    37  30  75 E8        29.95S WCI  31
FLINT          MOCLDY    38  27  64 SE13      29.93S WCI  30
GROSSE ILE     MOCLDY    36  32  87 E6        29.94F WCI  31
HILLSDALE      LGT RAIN  36  32  86 E10G17    29.86S WCI  28
HOWELL         CLOUDY    36  29  76 E13       29.91S WCI  27

CITY           SKY/WX    TMP DP  RH WIND       PRES   REMARKS
JACKSON        CLOUDY    37  28  70 E15       29.88F WCI  28
LAMBERTVILLE   CLOUDY    36  30  80 E7        29.92F WCI  30
LANSING        CLOUDY    38  28  67 E10       29.90F WCI  31
LAPEER         CLOUDY    35  29  79 SE6       29.95R WCI  30
MASON          CLOUDY    36  29  74 SE8       29.89F WCI  30
MONROE         MOCLDY    36  30  80 E7        29.92F WCI  30
MT. CLEMENS    MOCLDY    35  33  95 E10       29.95R WCI  27
PONTIAC        CLOUDY    35  28  75 E9        29.92S WCI  28
PORT HOPE        N/A     33  27  78 SE12      30.00S WCI  24
PORT HURON     MOCLDY    34  30  86 SE8       29.99R WCI  27
TRI CITIES     CLOUDY    37  28  70 E8        29.95S WCI  31
TROY           MOCLDY    37  31  76 E9        29.97F WCI  31
SAGINAW HB     CLOUDY    36  30  80 E7        29.94S WCI  30
$$
MIZ043>046-050>051-056>058-064>065-071>073-077>080-222300-
SOUTHWEST LOWER MICHIGAN

CITY           SKY/WX    TMP DP  RH WIND       PRES   REMARKS
BATTLE CREEK   LGT RAIN  38  31  76 E10       29.84F WCI  31
BENTON HARBOR  LGT RAIN  35  34  96 SE12      29.79S FOG     WCI  27
BIG RAPIDS     CLOUDY    35  29  80 SE12      29.87F WCI  26
COLDWATER      RAIN      36  32  86 MISG      29.84F
FREMONT        LGT SNOW  34  31  89 E14       29.84F WCI  24
HOLLAND        LGT RAIN  37  33  85 E14       29.82F FOG     WCI  28
GRAND RAPIDS   LGT RAIN  35  31  85 E12       29.86S FOG     WCI  27
IONIA          LGT RAIN  37  31  79 E9        29.88S WCI  30
KALAMAZOO      LGT RAIN  37  32  82 E12       29.82F WCI  29
LUDINGTON      CLOUDY    37  29  74 SE10      29.84F HAZE    WCI  29
MARSHALL       LGT RAIN  36  31  82 E7        29.86S WCI  30
MOUNT PLEASANT CLOUDY    34  27  76 NE7       29.92S WCI  28
MUSKEGON       LGT RAIN  36  32  85 E13       29.83F FOG     WCI  27
SOUTH HAVEN    LGT RAIN  37  34  89 SE10G16   29.79S WCI  29
$$
MIZ016>042-222300-
NORTHERN LOWER MICHIGAN

CITY           SKY/WX    TMP DP  RH WIND       PRES   REMARKS
ALPENA         CLOUDY    33  27  78 SE8       30.00S WCI  26
BEAVER ISLAND  MOCLDY    35  27  74 E10       29.93S WCI  27
BELLAIRE       CLOUDY    36  26  66 E5        29.92F WCI  32
CADILLAC       CLOUDY    32  25  77 E14       29.87S WCI  22
CHARLEVOIX     CLOUDY    35  26  70 SE12      29.95S WCI  27
FRANKFORT      CLOUDY    36  27  69 SE10G16   29.86F WCI  28
GAYLORD        CLOUDY    29  24  82 VRB5      29.92F WCI  24
GRAYLING       CLOUDY    33  26  77 E10       29.94S WCI  25
HARBOR SPRINGS MOCLDY    33  26  75 E9        29.94F WCI  25
HOUGHTON LAKE  CLOUDY    31  24  75 E8        29.93S WCI  23
MANISTEE       CLOUDY    36  25  64 E10       29.86F WCI  28
OSCODA         CLOUDY    33  28  80 E7        29.99F WCI  27
PELLSTON       PTCLDY    33  26  75 SE10      29.96S WCI  25
ROGERS CITY    CLOUDY    33  29  87 E10       30.00S WCI  25
TRAVERSE CITY  CLOUDY    36  26  67 E7        29.90S WCI  30
$$
MIZ007>008-015-222300-
EASTERN UPPER MICHIGAN

CITY           SKY/WX    TMP DP  RH WIND       PRES   REMARKS
KINROSS        CLOUDY    34  30  86 SE20      29.98S WCI  22
MACKINAC ISLAN PTCLDY    34  28  79 SE10G21   29.97R WCI  26
NEWBERRY       CLEAR     30  28  90 E8        29.94S WCI  23
S. S. MARIE    CLOUDY    34  27  75 SE10      29.99F WCI  26
MUNISING         N/A     35  27  72 S7        29.90R WCI  29
$$
MIZ004>006-011>014-085-222300-
CENTRAL UPPER MICHIGAN

CITY           SKY/WX    TMP DP  RH WIND       PRES   REMARKS
MANISTIQUE     CLOUDY    33  30  88 E8        29.92S WCI  26
ESCANABA       CLOUDY    34  28  80 E8        29.87F WCI  27
MENOMINEE      CLOUDY    36  30  80 E7        29.83F WCI  30
SAWYER-GWINN   CLOUDY    32  30  93 SE9G17    29.86R FOG     WCI  24
$$
MIZ001>003-009>011-084-222300-
WESTERN UPPER MICHIGAN

CITY           SKY/WX    TMP DP  RH WIND       PRES   REMARKS
IRON MOUNTAIN  CLOUDY    33  30  88 E8        29.81F FOG     WCI  26
HOUGHTON       CLOUDY    35  32  88 SE8       29.80R WCI  29
COPPER HARBOR    N/A     36  33  89 S7        29.83S WCI  30
IRONWOOD       CLOUDY    36  34  93 SE7       29.71S WCI  30
$$

ABBREVIATIONS USED IN REMARKS
   TC - TEMPERATURE IN CELSIUS
  WCI - WIND CHILL INDEX
   HX - HEAT INDEX
  VSB - VISIBILITY



USA.gov is the U.S. government's official web portal to all federal, state and local government web resources and services.